Retour au catalogue

ONEWEB-0510

ActifCommunicationsPO
NORAD 54128·PAYLOAD·🇬🇧 United Kingdom

Lancé Oct 22, 2022 depuis Satish Dhawan Space Centre

Loading…

Prochains Passages (prochaines 24 heures)

TLE

FraisSource: CelesTrak SupGP

Époque: Sep 14, 2026, 14:59 UTC

1 54128C 22138R   26257.62449491 -.00001640  00000+0 -40388-2 0  2571
2 54128  87.9144 256.5945 0001986 101.8010  11.0663 13.20773331    14

Suivez ONEWEB-0510 en temps réel avec AllMySat

Download on the App Store